CAPE
17 44 0 18 3 0 0 30 12 10 168 170 132 101 81 423 719 1013 1062 1444 1609 1871 1744 1543 1227 1626 1406 711 1075 1117 1825 1587 1861 1364 1288 2223 2240 2674 3366 3524 3903 3875 4050 3721 3323 3804 3747 3270 3805 3277 3500 4102 3527 3572 3274 2815 3969 3927 4070 4256 3277 3326 2321 2051 1216 1229 2246 2287 2729 1184 1165 1548 929 1133 1580 1200 804 680 649 1257 1433 1185 1100 1379 1556
19 89 6 23 10 2 6 48 54 10 173 67 74 128 72 304 481 661 980 1438 1701 1656 1802 1489 1589 1338 1135 626 532 910 1908 1981 2609 1575 1657 1572 3058 3499 3491 3178 3509 3790 3454 2868 3897 3649 3810 3572 3504 3845 3824 4586 4466 3940 3448 2852 3171 3946 3298 3488 3060 3318 1944 874 968 1087 2008 1648 2198 1699 1951 1364 2376 982 832 680 775 780 759 1137 903 915 923 1156 1421
92 152 22 68 31 20 7 37 50 44 86 4 52 281 180 720 992 943 1025 1224 1532 1471 1772 1898 1584 1717 952 768 458 586 872 1231 1587 1441 1569 2081 2107 2764 3484 3377 3819 3869 3360 3521 3878 3680 3945 4414 3726 3456 3422 4070 4493 3376 3406 3452 3721 3175 3468 3632 3852 2540 2676 1284 1132 1590 1298 1826 1998 2580 1700 2428 2123 2221 948 736 565 444 540 492 821 710 440 611 745
195 167 102 113 30 67 9 53 76 70 290 85 87 362 121 1386 1501 1502 1356 1262 1680 1774 1602 1463 1490 1780 1820 1268 887 698 1009 1101 1523 2086 1852 1623 1655 2601 3529 3723 3430 2709 2625 2763 3262 3298 3453 3678 3448 2971 4292 4074 4379 3909 4086 3480 3468 3591 2566 2982 2977 2672 974 1463 1163 1063 1905 2312 3126 2759 1860 1523 1550 1808 2069 756 555 527 555 294 416 717 431 1051 1196
247 215 240 244 55 153 40 119 28 83 205 176 154 281 166 667 1471 1638 1806 1630 1889 1771 1387 2191 2037 2034 1618 1554 1224 1225 1267 1392 1498 1359 1936 1691 1334 1718 2346 2943 3173 2722 2530 2788 3307 3861 3694 3682 3104 3555 3667 3751 3935 3516 4095 3324 2611 2443 3306 4341 2609 2710 1233 1297 1231 701 989 1951 2639 3091 2333 2178 1648 1740 531 2900 904 441 512 458 0 778 804 876 1000
460 218 301 212 204 244 173 148 28 104 214 156 191 90 166 624 1306 1934 1878 1898 1564 1829 1770 2477 2462 2253 2270 2265 2249 1929 1896 1768 1817 1712 1399 1553 770 845 1890 1913 2195 2801 2727 3099 3545 3379 3740 3948 3448 3020 3229 3866 4303 3463 2966 2982 3229 3011 3074 2410 2270 2884 3790 3596 1100 1326 1653 2121 2157 2879 2543 2447 1699 1884 1257 2521 3124 1759 263 376 510 693 707 911 1188
377 339 284 221 237 195 195 211 73 112 194 200 186 129 241 766 1299 1603 1888 2037 1510 2122 2247 2512 2274 2267 2016 1277 1639 2165 2131 1441 2031 1268 1414 1270 1252 1248 1800 1912 2444 2436 2138 3010 3077 3558 3320 3888 3493 3488 3552 3324 3368 3104 3664 1970 1507 2356 2132 3002 3553 3737 4126 3946 2954 984 2087 2696 1137 866 1228 1624 1780 2172 2798 2686 2228 2395 1089 1300 480 796 704 757 1131
766 365 344 296 207 256 408 244 150 153 201 183 190 186 563 1213 1567 1692 1914 2012 1492 2126 2506 2568 2636 2655 2321 1911 1752 2153 1520 2102 2016 2118 1726 1656 2230 1327 1705 1735 2256 2678 2731 3603 3539 3842 3862 3412 3894 4141 3567 3561 3272 4162 3410 1994 3542 3746 3889 3348 3653 5346 4270 3755 3223 2873 2929 3258 2338 2586 1004 528 771 1280 1203 1572 2317 2016 2546 1688 468 642 646 610 767
953 1147 551 472 286 261 371 439 281 234 324 304 259 420 808 1450 1928 1808 2001 2080 2197 2368 2518 2371 2900 2900 2354 2081 2217 2110 1920 1946 1854 1508 2294 1806 1819 2456 2602 1957 2669 3378 3085 3323 3502 3520 4046 3682 3631 4215 3668 2895 2906 2770 2578 2165 2829 3142 4031 3924 3964 3565 3245 3948 3972 4087 2619 2456 3679 2687 2802 2524 1114 1066 716 1288 2133 2152 1590 1012 668 816 911 526 868
1262 1406 1083 861 386 341 359 308 346 332 367 450 254 230 377 1194 2104 2052 2266 2048 2339 2605 2549 2654 2878 2931 2536 2279 2297 2270 2247 2072 1857 1912 2496 2428 2418 2502 3492 4066 2280 2753 3314 3327 3399 3545 3558 3980 3300 3518 3282 2758 2306 3434 2579 2795 3380 3521 2968 2847 3065 3212 4823 3662 2721 4159 3096 2821 2578 3743 3330 3194 2459 2015 1238 1550 974 1323 1793 1547 607 596 2593 1526 1144
2039 1474 1754 823 524 477 259 306 545 233 588 527 343 342 417 698 1841 2129 2355 2030 2355 2731 2712 2632 2659 2559 2422 2504 2448 2220 2205 2400 2466 2394 2903 3020 3242 2403 3355 3728 3422 2347 2689 3528 3372 3282 2965 3593 3004 2948 3082 2898 3477 3426 2954 2408 2476 2682 2478 3920 3756 4322 3696 3105 2924 3613 3868 3873 2956 3116 3597 2390 2778 3005 2277 1685 2128 1539 2712 1754 1091 734 890 1352 1516
1703 1859 1667 1818 1177 669 474 844 647 780 514 512 364 581 665 995 1601 2117 2453 2374 2416 2629 2548 2324 2312 2429 2372 2379 2633 2666 2441 2238 2679 2407 2437 2962 2629 2906 3149 3606 3890 2696 2881 3069 2676 2178 3348 3284 3083 3298 3592 2876 3104 3294 3316 2924 2347 2346 3700 3861 3478 3378 4082 4699 3371 4364 3297 3716 1624 1565 2169 1764 1647 1272 1472 2414 2504 2875 2239 2476 2568 2104 1164 1688 1417
2016 2194 2578 1800 1450 1316 659 1144 1534 1740 1534 1058 786 1262 640 1376 2021 2059 2470 2456 2510 2717 2682 2669 2366 2462 2432 2401 2526 2992 2831 3120 3055 2701 2507 3028 2914 2752 3524 3460 3411 3391 3100 2615 2337 2196 3190 3638 3196 3116 3388 3408 3800 4172 3507 3086 3804 3060 3570 2697 3384 3229 3213 3469 3908 3483 3078 2874 2542 2234 1091 1100 1322 1275 1521 1182 1977 3059 1968 2352 1911 1617 1521 1563 1548
1610 2101 2445 2389 2348 1857 1253 1292 1194 1376 1336 1241 980 1687 1520 1677 2314 1967 2580 2479 2719 2896 2751 2836 2542 2684 2786 2490 2511 2952 2958 2947 3209 2379 2058 2757 3183 2730 2140 2423 3167 2726 2413 3197 2399 2085 2863 3145 3326 3652 3795 3426 3708 3285 4218 4020 4028 3590 3451 3700 2921 3824 3950 3704 3820 3469 3743 3188 2887 2470 1689 1104 1285 1053 1156 1312 1424 1762 2502 2358 2682 3088 2338 2047 2177
1447 2152 2214 2127 2058 1800 1571 1458 1017 1176 1127 936 1145 1820 2555 2359 2894 2775 2875 2738 2936 3079 3013 2875 2481 2670 2798 2608 2577 2605 2500 2589 3085 2767 2645 2362 1873 1887 2608 2119 2245 2353 2733 3292 3208 3108 3131 3314 3293 3346 3830 3993 3943 3823 3896 3729 4134 3805 4256 3742 4210 3146 3601 3569 3875 3354 2181 2033 2414 3149 2077 2190 1911 2369 1223 1216 1483 1789 2305 2519 2456 2774 2881 3190 2282
1979 1941 1958 1814 1836 2064 2332 2060 2532 1652 1526 1148 1059 2080 1906 2937 3202 3152 3178 2984 3022 3284 3206 2932 2714 2594 3032 2823 2708 2747 2656 2361 3017 3466 3408 2485 2364 2327 2594 3134 2167 2752 2621 2973 2700 2826 2998 3221 3344 2950 3796 3570 3904 4002 3634 3819 4045 4080 4552 4312 3462 2126 3828 3306 4184 3105 2897 3090 2512 4199 3511 2393 2276 1402 1682 1906 2504 2676 3048 3211 4621 4434 3311 3600 3604
1359 1852 1391 1673 1950 1880 1798 1994 1792 1899 1823 1310 1788 1282 1694 2676 3119 3324 3442 2606 2936 3318 3161 2899 2961 2844 2895 2641 2543 2623 2245 2180 2027 2260 1854 2002 2350 2171 2135 1836 1838 2652 2470 2392 2420 2994 3116 3104 2953 2451 3539 3605 3691 3956 3665 3727 4216 4154 3524 4452 3482 2846 3340 3680 3668 3857 3981 2530 2138 2805 3726 3847 3682 3091 2328 2406 3757 2783 2878 3709 2586 3985 4077 4064 3854
1226 1319 1609 1442 1681 1925 1788 1768 1752 1658 1583 1894 996 828 1044 1634 1930 2210 2550 2219 2395 2957 2734 2838 3082 2931 2964 2816 2720 2481 1943 1744 1722 1956 1910 2094 2327 2317 1844 2117 1790 1230 1424 1333 2342 2690 3086 3140 3296 3136 2788 2793 3054 2970 3481 3665 4520 4383 3744 4053 4081 3678 3688 4196 4774 3534 3495 3452 2613 2254 2335 3245 3479 2584 2171 1665 3769 4366 3323 3447 3936 4093 3718 3897 4137
599 1018 1292 1641 1761 2134 2584 2234 2153 2130 1818 1463 1092 1245 1038 1619 2074 1624 2705 2766 2613 2992 2738 3008 3134 2455 2416 2596 2460 2373 2073 1915 1628 1937 2003 1862 1440 1800 1738 1777 1464 1873 2481 2751 2670 2252 2720 2964 3320 2849 3208 3142 3096 2942 3526 3520 3857 4127 3643 3540 3693 4305 4306 4943 5188 4235 3252 3678 3862 3260 3867 4056 3803 3075 3177 1699 3687 3771 2963 2947 3422 6145 4126 5553 4688
774 1062 978 1605 1678 1726 2411 2511 2001 2137 1970 1619 1137 921 1367 1922 2118 2133 2064 3052 3063 3251 2683 2369 2725 2008 1931 2669 3008 2872 2656 2278 2008 1868 1530 1472 1621 1746 1790 1414 1652 1533 1466 2124 2317 2091 2208 2254 2154 1973 2109 2232 2549 2336 2750 3499 3522 3485 3078 2698 3088 3948 3876 4233 3812 3401 2374 3324 3798 3845 4277 3971 4110 3904 3494 3261 3226 2716 2518 3576 4278 3887 3776 3498 4739
444 478 844 954 1414 1840 1377 2173 2498 1835 1570 1208 1026 1456 1442 1775 2151 2177 2379 2848 2746 2793 2838 3026 3031 3495 3495 2706 2270 2295 2257 1925 1478 1363 1525 1531 1546 1673 1356 1206 1610 1515 1428 1450 1961 2184 2447 2357 2209 2318 2044 2298 2860 2772 2507 3178 3435 3784 3647 3622 3084 3726 4014 3729 3907 3540 2924 3176 3798 3747 3602 3532 3817 3576 4037 3426 2832 3072 2956 2933 3025 3632 3182 3882 3993
398 442 449 607 836 1285 1376 1320 1891 2052 1623 1257 1588 2138 1817 1426 1413 1379 1970 2151 2498 2738 2584 2450 3494 3130 3198 2178 1602 1542 1744 2109 1353 929 1227 1430 1438 1435 1857 1685 1231 1680 1666 950 1763 1556 1998 2244 1930 2282 2185 2194 3024 3242 2162 2361 3183 3520 3261 2521 2678 4010 3998 3816 3727 3855 3354 3122 3451 3972 3750 3434 3934 3522 3239 2566 2346 1467 1990 2088 2882 2754 3359 3764 4240
213 382 402 574 674 687 868 957 1096 1274 1454 1536 1788 2029 1981 2273 2124 2202 2278 2400 2271 1836 2066 2591 2779 2923 2671 2560 1985 1851 1618 2028 1350 1133 780 849 1119 1147 1500 1574 884 952 1490 1495 1772 1506 2058 2486 2212 2414 2767 2302 3219 2743 2416 2519 2727 3284 3154 2524 2001 2854 3235 3432 3414 3634 3368 3203 3138 3311 3362 3282 2486 2746 2994 2514 1878 2170 1944 2290 2062 2542 3356 2950 4704
162 174 217 472 532 550 549 588 773 967 1320 1544 1780 2137 1895 2051 1973 1682 1921 2318 2293 2198 1908 1843 1967 2037 2239 2038 2016 2077 1784 2221 1123 836 849 737 748 835 1279 1217 828 819 982 1518 1700 1728 2334 2656 2504 2784 3022 2516 3134 2537 2414 2306 2984 3097 2936 3135 3190 3349 2876 2876 3032 3034 2865 3023 2969 3221 2789 2631 2687 2844 3058 2803 3256 2670 2613 3164 2692 2955 2656 2379 2566
220 196 274 346 402 519 694 677 738 916 980 1059 1200 1396 1465 2137 2022 1664 1885 1828 1591 1638 1745 1814 1625 1854 2178 3289 2008 2620 2655 2732 2609 1325 619 574 609 696 900 991 932 821 846 1134 1635 2106 2607 2858 2058 2337 2689 2717 2535 2633 2863 2293 2081 2110 2661 2490 2570 2733 2974 2994 2824 2955 3129 3320 3106 2842 2878 2871 2996 2969 2840 2708 2491 2714 2420 2092 2316 2573 2683 2820 2920
367 344 277 183 421 543 753 762 818 893 926 904 946 846 1010 1548 1808 1603 1589 1756 1678 1137 1648 1346 1300 1254 1487 1710 1907 2001 1726 2126 2915 2383 1622 526 546 390 514 903 970 985 963 890 1485 1425 1759 2961 2430 2234 2394 2672 2666 2593 2871 2705 2070 1942 2174 2281 2645 2854 2502 2635 2608 2717 2868 2796 2483 2764 2797 2997 2905 2807 2642 2647 2910 2973 3051 2762 2511 2804 3229 3914 4699
410 380 432 419 521 657 775 799 823 912 870 914 928 947 911 972 927 1246 1524 1130 1697 1428 1615 1487 1402 1416 1542 1729 2062 1733 1488 1778 2508 2081 1804 1135 519 362 277 440 707 882 804 558 868 1480 1597 1941 2655 2427 2172 2472 2704 2584 2902 3080 2702 2347 2243 2255 2113 2404 2176 2287 2327 2281 2099 2264 2412 2278 2516 2718 2541 2624 2471 2570 2996 2999 2579 2488 3296 4204 3558 3376 3128
428 498 429 466 498 608 637 725 764 772 870 876 860 893 912 1006 961 897 858 767 682 691 845 1496 1360 1470 1228 1712 1382 1160 1376 1217 2105 2812 2629 1812 1202 860 476 492 811 802 619 496 241 1045 1630 1406 1924 2033 2234 2558 2890 2692 3057 3380 2966 2552 2364 2280 2204 2031 1750 1840 1895 2196 1977 1613 1726 1674 1203 1598 1986 2330 2346 2409 2797 3010 3157 2830 3117 3222 3229 3537 3463
322 392 578 548 541 569 644 682 707 707 676 773 802 872 769 817 864 828 843 765 744 668 808 889 1138 1009 1152 1611 1588 1447 2062 2260 2250 2636 2925 2540 2443 2566 2292 1463 1214 750 530 480 380 175 785 1144 1183 1558 1862 1978 1949 2146 2209 2648 2864 3041 2731 2199 1868 1785 1780 1771 1851 1540 1674 1571 1113 923 942 796 1573 2595 2199 2248 1868 2077 2162 2851 3185 3304 3895 4214 4336
299 429 562 720 651 630 649 696 698 691 773 796 784 781 715 629 788 830 826 783 761 789 734 910 910 1286 1258 1018 1103 861 1240 1490 1676 2041 2306 2514 2506 2245 1766 1701 1955 1111 1165 1090 826 687 305 943 1269 1555 1703 1460 1461 1586 1887 1571 1985 2445 2676 2098 1775 1622 1640 1658 2001 1862 1379 1300 819 573 420 1085 2304 3671 2971 1972 1687 1785 2906 2395 3097 3902 4283 4178 4336
328 331 592 516 691 720 735 734 734 723 766 779 801 782 769 795 519 403 493 636 675 703 698 710 700 888 1476 1207 1051 980 1221 1640 2093 2081 1790 2596 2421 2309 2415 1934 1943 2562 2088 1912 1602 776 362 179 589 963 1248 1022 1139 1060 997 1410 1577 1918 2478 2724 2472 2412 2299 2328 2222 2352 1964 1276 864 857 690 1116 1940 2848 4383 2480 1710 1555 1466 1504 1745 2179 2782 3187 3701
223 228 197 353 466 466 586 741 711 752 781 780 798 807 805 744 711 685 534 419 436 462 419 498 583 646 724 752 839 937 1417 1415 1262 1459 1406 1765 2136 1978 2013 1638 1334 1599 1549 1440 1623 1651 1533 1207 419 346 622 873 988 822 133 449 1264 1620 1907 2433 2418 2143 1702 1868 2077 1859 1984 1680 1179 743 532 333 463 1002 1593 3084 2017 1472 1320 1288 1160 1084 1007 1049 1291
183 231 215 231 331 428 408 502 651 795 808 782 733 773 820 814 792 775 667 618 546 503 489 521 519 503 603 734 1161 930 867 1025 1182 1843 1792 1820 1932 1944 1902 1884 2050 1842 1738 2262 1802 1189 1265 1796 1456 1471 909 395 731 499 8 0 0 1192 1555 1752 1966 2011 1693 1247 1182 1697 1708 1728 1619 1226 919 457 118 967 1886 1447 2052 1528 908 793 866 850 819 721 306
82 124 189 202 354 422 316 383 381 428 503 545 589 584 577 621 617 710 735 584 662 677 644 626 588 547 576 693 692 930 961 1017 1010 1290 1379 1664 1519 1364 2050 2367 2263 2331 2296 2157 1890 2118 1891 1605 1534 1828 2110 1910 1340 419 0 0 0 344 1108 1367 1798 1834 1833 1453 1182 1252 1340 1502 1605 1612 1491 1193 938 785 874 1839 2499 2643 1823 1239 993 1082 1416 1476 1080
0 0 30 85 121 215 325 428 364 295 380 403 380 360 433 482 497 546 563 556 515 767 825 755 676 636 616 592 617 712 810 1043 1205 1131 1028 1156 1254 1309 1724 2104 2181 2528 2552 2358 2126 2184 2261 2132 1760 1535 1650 1843 1516 1314 1040 160 0 0 137 920 1428 1766 1542 1260 1117 1189 1563 1411 1672 1712 1478 1374 1474 1666 1712 1341 1319 2482 3898 3477 2568 1803 1562 1621 1677
0 0 0 0 0 0 132 157 199 247 293 345 362 357 412 422 429 400 404 418 457 476 608 691 769 720 670 594 591 642 643 726 899 948 892 1150 1340 1341 1526 1954 2563 2720 2585 2377 2273 2083 1928 1681 1638 1571 1718 2005 1966 1481 1341 1211 1004 526 0 23 1022 1645 1639 1338 1093 922 907 1159 1279 1307 1631 2097 2138 2155 2093 1828 1628 1698 1566 2077 3252 3735 3741 3448 2990
0 0 0 0 0 0 0 0 60 114 128 160 179 196 229 275 319 312 356 412 425 435 415 430 488 589 669 658 612 527 558 702 702 749 855 866 1346 1534 1574 2057 1996 2260 2012 2151 2341 2085 1917 1857 1580 1562 1551 1747 2108 2058 1673 1593 1394 1132 950 781 918 1530 1893 1763 1426 1316 1239 1250 1258 1174 1252 944 955 1619 2235 2215 1852 1467 1501 1359 1307 1518 1642 1436 2026
0 0 0 0 0 0 0 0 0 0 12 71 88 103 129 148 164 172 191 213 288 326 389 442 435 384 371 386 554 539 600 698 629 574 573 633 1233 1537 1688 1984 1914 1942 2091 2026 2142 2275 2207 2084 1773 1561 1432 1673 1897 2280 2124 1852 1618 1489 1242 1099 1004 1462 1722 1969 2189 2035 1909 1907 1874 1920 2097 1399 1122 988 804 936 1564 1685 1706 1834 1603 1330 1204 1245 1483
0 0 0 0 0 0 0 0 0 0 0 0 0 0 46 82 87 90 88 101 104 110 132 136 174 166 91 90 194 221 311 539 665 641 551 579 906 1011 1080 1361 1500 1249 1553 2013 1988 1907 1664 1674 1835 1876 1641 1753 1837 2005 2138 1990 1769 1725 1631 1375 1138 1422 1625 1704 1780 2003 2060 2002 2017 2107 2158 2019 1741 1529 1081 906 960 1090 1658 2049 2045 1859 1475 1211 1079
0 0 0 0 0 0 0 0 0 0 0 0 0 0 0 0 0 0 0 28 34 0 0 0 0 0 0 0 0 125 210 250 366 570 572 522 590 713 747 780 961 1099 1176 1238 1336 1388 1586 1665 1655 1634 1651 1739 1543 1900 2388 2408 2132 1844 1814 1815 1689 1860 1800 1743 1796 1874 1982 2070 2117 2195 2196 1728 1580 1403 1228 1125 1110 1176 1333 2023 2263 2045 1762 1681 1606
0 0 0 0 0 0 0 0 0 0 0 0 0 0 0 0 0 0 0 0 0 0 0 0 0 0 0 0 0 0 0 0 14 152 225 172 334 674 759 1077 930 991 1027 1089 1094 1068 1272 1422 1552 1697 1836 2052 1843 1608 1314 1444 1723 1855 1816 1686 1577 2109 2065 2110 2209 2070 1994 1866 1901 2252 2266 2347 1993 1776 1545 1356 1159 1050 1073 1512 2115 2137 1921 1853 2195
0 0 0 0 0 0 0 0 0 0 0 0 0 0 0 0 0 0 0 0 0 0 0 0 0 0 0 0 0 0 0 0 2 10 129 735 611 490 691 716 620 709 731 830 883 883 862 1071 1529 1521 1667 2234 1735 1407 1093 1089 1308 1585 1677 1950 1714 1861 2339 2291 2303 2161 2094 2082 2151 2205 2431 2455 2172 2037 1914 1811 1701 1576 1446 1306 1488 1469 1677 1762 1721
0 0 0 0 0 0 0 0 0 0 0 0 0 0 0 0 0 0 0 0 0 0 0 0 0 0 0 0 0 0 0 0 0 14 22 17 160 235 272 962 1207 1125 944 916 1070 1245 1075 903 1152 1615 1828 1838 1690 1885 1714 1421 1300 1497 1838 1848 1886 1717 1502 1697 1592 2142 2200 2162 2282 2350 2468 2378 2050 1776 1814 1798 1763 1694 1624 1592 1545 1467 1427 1436 1456
0 0 0 0 0 0 0 0 0 0 0 0 0 0 0 0 0 0 0 0 0 0 0 0 0 0 0 0 0 0 0 0 0 0 0 2 16 47 231 609 849 955 1295 1431 1550 1482 1537 1383 1167 1026 1276 2659 1515 1506 1632 1497 1182 1259 1422 1665 1787 1874 1812 1704 1735 1815 2051 2112 2205 2462 2681 2133 2008 1877 1812 1735 1662 1626 1592 1583 1558 1535 1510 1484 1472
0 0 0 0 0 0 0 0 0 0 0 0 0 0 0 0 0 0 0 0 0 0 0 0 0 0 0 0 0 0 0 0 0 0 0 0 0 0 29 247 511 385 683 1331 1428 1292 1229 1203 1274 1348 1588 3336 2084 1605 1474 1453 1521 1272 1274 1598 1742 1800 1801 1868 1900 1850 1795 1940 2008 1825 1708 1586 1725 1812 1828 1816 1756 1694 1666 1613 1572 1518 1419 1421 1439
0 0 0 0 0 0 0 0 0 0 0 0 0 0 0 0 0 0 0 0 0 0 0 0 0 0 0 0 0 0 0 0 0 0 0 0 0 16 91 184 224 346 516 641 1010 1235 1256 1272 1312 1716 2549 3158 2962 2230 1914 1724 1632 1573 1770 2087 2483 2582 2335 2029 1935 1996 1925 1951 2022 2054 1967 1758 1563 1484 1485 1481 1487 1477 1468 1466 1417 1428 1414 1384 1378
0 0 0 0 0 0 0 0 0 0 0 0 0 0 0 0 0 0 0 0 0 0 0 0 1 0 0 0 0 0 0 0 0 0 0 0 1 1 0 36 84 145 330 618 603 859 1027 1040 1889 1875 2058 2426 2548 2137 1748 1682 1556 1953 2151 1812 2043 2322 2411 2473 2340 2191 2077 2054 2034 2141 2158 2048 1825 1699 1628 1480 1381 1383 1401 1394 1398 1365 1350 1360 1339
0 0 0 0 0 0 0 0 0 0 0 0 0 0 0 0 0 0 0 0 0 0 0 0 0 0 0 0 0 0 0 0 0 0 0 0 0 0 0 0 34 91 422 617 371 269 584 794 936 1244 1412 1664 1736 1834 1817 1601 1632 1648 2405 2529 2201 2240 2176 2193 2174 2142 2166 2134 1909 1658 1607 1713 2110 2120 2042 1899 1626 1452 1393 1396 1362 1338 1304 1276 1248
0 0 0 0 0 0 0 0 0 0 0 0 0 0 0 0 0 0 0 0 0 0 0 0 0 0 0 0 0 0 0 0 0 0 0 0 0 0 0 0 0 30 34 0 0 0 11 14 8 91 423 321 281 341 1578 1421 1744 1696 1710 1884 1917 1864 1813 1854 1942 2067 2127 2107 1982 2056 2148 2185 2222 2208 2177 2089 1941 1806 1675 1511 1391 1329 1306 1292 1285
0 0 0 0 0 0 0 0 0 0 0 0 0 0 0 0 0 0 0 0 0 0 0 0 0 0 0 0 0 0 0 0 0 0 0 0 0 0 0 0 0 0 0 0 0 0 0 0 0 0 1 33 17 47 146 314 605 1272 1705 1684 1635 1661 1691 1747 1838 1982 2051 1985 1868 1901 1980 2014 1813 1554 1380 1292 1320 1377 1452 1424 1326 1258 1219 1197 1166
0 0 0 0 0 0 0 0 0 0 0 0 0 0 0 0 0 0 0 0 0 0 0 0 0 0 0 0 0 0 0 0 0 0 0 0 0 0 0 0 0 0 0 0 0 0 0 0 0 0 0 0 0 0 0 0 175 341 672 1184 1645 1700 1707 1745 1815 1906 1980 1973 1881 1757 1790 1824 1816 1626 1438 1505 1613 1656 1622 1504 1712 1662 1472 1485 1498
Wind_Speed
nan nan nan nan nan nan nan nan nan nan 9 10 9 9 nan 8 10 8 8 7 4 3 2 1 1 3 2 0 1 2 2 3 1 0 2 3 2 1 3 3 3 2 2 2 3 5 4 2 4 6 5 7 7 7 7 9 5 7 9 8 10 9 11 12 9 8 9 11 15 11 11 13 10 13 14 13 13 15 13 17 17 13 14 14 15
nan nan nan nan nan nan nan nan nan nan 9 nan nan 8 nan 9 9 9 9 8 5 3 2 1 1 2 1 1 1 2 2 1 2 2 3 2 2 2 3 2 2 2 2 3 3 1 3 1 2 4 4 5 6 7 6 5 5 6 6 9 7 11 9 8 6 9 11 8 10 11 10 11 10 12 11 13 13 15 14 13 16 15 15 12 14
nan 8 nan nan nan nan nan nan nan nan nan nan nan 9 9 10 9 9 10 8 6 4 2 3 2 2 2 2 1 3 3 2 2 4 1 5 3 2 1 1 1 1 2 2 1 1 1 2 1 2 6 4 6 5 5 4 6 6 6 6 9 6 9 4 6 10 8 6 8 10 10 10 12 13 16 13 14 12 14 14 14 15 13 11 15
8 9 9 9 nan nan nan nan nan nan 8 nan nan 8 8 12 10 9 10 8 7 7 3 4 3 3 3 3 3 4 3 4 5 3 2 4 4 4 2 0 0 1 2 2 2 1 1 1 2 2 5 1 2 4 4 6 5 4 5 8 4 8 5 5 6 5 9 6 10 10 12 10 12 13 15 15 16 12 16 13 16 13 12 10 14
7 8 9 9 nan 11 nan 7 nan nan 8 8 7 8 8 10 11 8 10 9 8 9 5 6 5 6 5 5 5 5 5 5 4 3 3 1 4 3 4 2 1 0 0 1 2 2 3 2 1 2 2 2 2 4 5 7 5 5 3 5 3 8 5 5 6 4 5 9 7 10 11 12 13 15 15 17 19 16 16 15 nan 20 9 12 15
5 8 9 9 9 11 12 10 nan 9 7 9 7 nan 8 10 10 9 10 11 8 10 7 8 8 8 6 6 6 3 3 5 4 4 4 1 2 4 5 4 4 2 1 2 1 1 2 2 2 1 2 2 1 2 3 9 3 6 2 2 6 3 5 8 5 7 4 7 11 8 7 9 12 15 17 17 16 17 16 12 14 19 8 10 15
6 6 9 9 10 12 14 11 nan 11 8 10 7 8 9 10 11 9 10 10 9 11 9 11 9 8 7 6 6 4 5 5 7 5 5 3 2 2 4 3 4 3 2 2 1 0 1 2 2 2 1 3 3 3 7 6 2 3 2 2 5 4 3 6 9 8 8 10 10 9 9 12 9 13 16 15 17 19 17 20 13 17 11 9 13
7 6 8 10 13 12 15 13 11 13 12 11 8 9 10 11 11 9 10 10 10 12 10 11 10 8 8 6 6 6 4 5 6 5 5 3 4 2 3 2 2 3 2 3 2 2 1 1 1 2 2 3 3 2 3 3 4 4 3 2 3 4 5 3 6 11 6 10 10 14 11 10 15 16 13 14 14 14 18 22 12 14 13 12 13
9 10 6 7 13 14 16 14 11 14 14 14 9 10 12 12 12 10 11 11 12 13 11 12 11 9 8 6 7 5 6 7 7 6 6 5 5 5 3 3 2 3 0 2 0 1 1 0 1 2 2 4 3 2 2 3 4 3 1 3 2 3 5 3 5 9 10 11 11 12 14 12 12 11 11 14 13 14 15 15 18 19 16 13 13
10 10 7 5 11 13 14 13 10 12 13 14 13 12 13 13 12 10 12 11 13 13 12 13 11 10 8 6 7 5 6 9 8 7 9 6 5 4 5 5 1 3 1 1 1 1 1 0 0 2 1 2 3 2 5 3 1 3 2 3 3 3 5 3 4 6 9 9 11 8 11 12 14 14 12 13 11 13 14 14 11 13 14 13 12
14 11 7 5 8 11 14 11 8 10 11 11 13 13 13 13 12 10 11 12 13 14 13 13 12 11 10 7 6 6 7 11 9 8 9 9 6 5 5 3 3 1 1 1 1 1 1 1 1 2 1 2 3 2 4 5 4 4 3 2 2 1 3 5 6 5 6 8 9 7 9 9 9 10 9 13 13 11 12 15 14 14 14 8 11
13 8 5 8 10 13 11 11 10 9 11 12 12 12 13 14 12 11 11 11 14 15 13 13 13 12 10 7 6 7 8 11 8 8 9 8 6 6 5 3 4 3 2 2 1 2 1 1 1 3 3 2 0 2 3 3 4 1 3 0 1 2 4 5 7 10 11 11 12 6 9 10 6 10 7 8 10 12 12 15 14 11 13 11 8
12 9 10 11 11 12 12 10 13 12 15 13 13 13 14 14 14 12 11 10 13 15 14 14 13 13 10 8 7 8 9 11 9 9 9 8 8 7 6 5 4 4 3 2 1 1 2 1 1 3 2 1 2 3 1 3 1 6 3 2 2 2 4 4 5 7 9 10 12 12 9 10 6 7 11 8 7 9 10 12 12 14 12 10 11
9 8 10 11 13 15 15 15 14 15 15 14 13 15 15 14 14 12 12 10 13 14 15 14 14 14 11 9 8 9 10 12 11 9 7 9 8 7 5 4 4 3 3 4 3 1 2 1 0 3 2 2 1 1 1 1 2 2 5 6 3 5 3 3 5 6 8 10 6 10 10 8 8 7 7 9 7 7 10 10 12 13 13 12 8
12 13 14 12 13 15 16 13 13 15 17 13 15 15 17 15 15 14 13 11 12 13 14 14 15 14 11 9 9 9 10 11 11 9 9 8 7 6 7 6 4 4 4 3 4 4 3 2 1 2 3 3 4 4 3 0 2 2 5 7 5 6 6 4 5 7 8 10 8 9 7 10 9 7 9 8 11 12 11 11 12 13 13 14 10
17 16 18 17 14 13 17 18 19 18 19 15 16 18 17 18 17 15 14 12 12 11 13 14 15 15 13 9 9 9 10 11 11 9 9 8 8 8 8 7 6 6 5 5 3 2 2 2 2 2 4 4 3 2 2 2 0 2 3 4 4 5 7 5 4 4 6 8 7 9 10 10 10 8 7 7 9 10 12 12 9 9 11 12 12
18 18 17 15 10 9 12 16 18 24 27 27 30 28 23 21 22 22 19 14 10 10 11 12 15 15 13 10 9 8 9 10 9 9 7 8 8 8 9 5 7 8 6 5 3 4 4 4 3 2 4 5 4 3 3 3 3 3 3 4 4 6 6 7 7 5 6 9 6 3 6 8 10 10 9 8 7 8 10 11 10 10 8 10 11
16 16 15 9 7 8 12 14 18 23 26 25 30 26 23 22 20 20 15 9 7 9 10 11 13 13 14 12 9 8 9 9 8 8 6 9 8 9 8 8 7 6 5 6 5 4 5 3 4 3 6 4 4 5 4 4 4 3 3 4 4 6 6 8 9 6 6 8 7 6 6 6 7 6 5 6 6 4 5 6 7 7 7 8 9
22 17 10 7 9 11 15 19 21 24 26 19 23 22 18 20 29 21 12 8 9 10 9 11 11 12 14 13 9 9 8 8 7 7 6 7 7 8 6 9 7 7 8 9 8 5 4 5 5 5 5 5 5 5 6 4 4 3 1 2 3 4 2 3 4 7 6 6 8 8 10 8 7 9 11 9 7 4 3 5 8 7 5 6 8
30 27 14 7 8 11 20 19 18 21 22 24 22 17 17 21 24 18 14 16 16 11 14 12 10 11 14 15 13 12 10 8 8 8 6 5 7 8 7 7 8 8 9 9 8 7 5 5 5 5 5 5 6 4 5 5 4 3 2 2 2 2 3 4 5 4 5 3 3 4 3 7 9 10 8 10 10 9 9 8 6 4 5 4 5
31 34 30 19 13 15 17 16 18 20 25 27 16 9 15 22 22 20 17 19 17 16 18 18 15 13 15 21 20 13 7 8 6 7 6 6 7 7 8 8 11 9 9 10 9 8 7 6 5 6 5 6 6 6 5 6 5 4 4 4 3 1 3 3 4 6 6 6 5 5 5 5 6 7 7 7 8 7 7 6 6 8 7 6 6
35 34 33 28 25 20 17 20 17 20 25 28 21 13 12 16 18 18 18 17 18 21 20 15 12 17 18 18 17 20 14 8 5 6 6 7 7 7 9 9 10 11 10 10 11 8 7 8 5 7 6 7 8 7 5 6 6 5 3 3 4 4 3 4 4 3 5 6 5 4 4 5 4 4 6 5 5 7 7 6 7 6 7 6 8
35 33 33 31 27 26 26 27 28 23 23 24 23 17 15 17 20 22 22 22 20 19 14 16 16 16 15 14 15 14 13 9 5 6 6 7 8 7 8 9 9 10 11 10 11 9 9 9 7 8 8 7 9 8 7 7 7 6 4 3 2 2 3 3 4 5 5 5 6 6 5 4 4 3 3 4 6 7 9 10 10 10 10 9 11
38 35 35 32 30 27 27 29 30 30 29 25 21 21 18 15 14 19 23 23 23 21 19 17 16 14 12 13 12 11 9 8 6 7 7 7 8 8 9 7 7 9 11 11 11 10 11 11 8 9 9 8 8 9 8 7 7 7 5 4 6 5 3 2 3 4 3 5 5 5 5 5 4 5 5 5 6 6 6 6 7 7 8 8 8
35 36 36 35 34 32 31 32 31 32 32 30 27 25 21 16 12 15 22 23 23 25 19 17 18 16 13 13 9 12 13 9 9 10 7 8 7 9 11 9 7 7 10 13 12 12 12 13 11 9 9 9 7 8 9 7 7 7 7 5 5 5 6 5 4 5 5 6 5 5 4 4 5 6 7 7 6 6 6 7 7 7 6 7 8
38 38 37 39 37 35 35 34 30 31 32 32 32 29 25 21 18 15 17 19 21 19 17 18 21 20 16 15 12 9 7 6 13 13 9 9 9 8 11 12 8 8 9 12 14 12 12 14 13 12 10 9 8 8 9 7 6 6 7 6 6 6 5 7 7 6 7 7 7 6 6 6 6 5 4 5 6 6 7 6 6 8 10 10 10
42 41 40 39 39 39 38 37 37 35 33 31 32 31 27 24 22 15 12 15 18 19 22 21 20 20 19 13 10 9 8 8 13 13 11 11 11 9 9 12 11 9 8 8 13 14 13 14 15 13 11 10 9 7 8 8 7 7 8 7 6 7 6 7 6 6 6 6 5 6 6 5 5 5 4 5 6 6 7 7 8 9 9 9 8
44 44 44 43 41 40 39 39 40 39 35 33 32 31 29 27 27 24 20 18 20 25 25 23 20 17 15 13 13 14 17 15 13 18 17 14 13 14 13 14 15 12 9 9 8 13 15 14 14 13 12 11 10 8 8 8 8 7 8 9 9 8 6 6 6 5 5 5 5 4 4 4 3 4 4 6 6 6 7 6 6 6 6 7 7
47 47 46 45 44 41 41 41 41 40 40 36 32 31 30 28 27 28 26 20 18 22 23 23 21 20 14 14 18 19 20 24 24 26 24 20 18 19 20 19 17 13 11 10 8 8 14 14 13 13 12 10 8 8 8 8 8 8 7 8 9 8 7 8 7 5 6 6 7 7 5 3 4 4 4 3 2 3 6 7 6 6 7 7 7
50 50 50 47 46 45 43 43 42 42 41 38 35 33 32 32 30 30 28 24 20 19 16 18 19 19 25 21 18 24 27 26 31 32 33 30 28 27 26 28 22 14 16 14 11 11 11 13 13 13 12 10 9 8 10 9 9 9 8 7 8 9 9 9 9 8 7 7 5 5 6 3 2 4 7 7 5 3 5 6 8 9 8 8 7
50 51 52 52 50 48 46 45 45 45 43 40 38 35 34 33 33 31 29 27 24 21 17 20 20 23 26 29 29 28 27 26 24 26 25 24 25 25 25 26 24 23 18 16 15 12 10 11 12 12 11 10 9 9 10 13 12 10 9 8 7 9 10 9 9 10 9 9 8 8 7 6 6 6 7 7 6 5 5 4 3 4 7 9 9
50 51 52 53 53 51 49 48 47 47 46 43 40 40 37 36 34 34 33 31 28 25 25 25 25 25 28 27 25 24 26 29 33 31 26 26 26 26 27 30 29 25 26 25 22 17 14 12 12 12 11 10 9 8 10 15 15 14 11 9 7 6 7 9 9 8 10 10 9 8 8 6 7 7 10 9 7 6 6 6 6 5 4 4 7
49 51 52 54 54 53 50 49 47 46 46 46 44 42 39 38 36 36 37 34 33 32 30 31 30 30 31 27 24 25 28 31 31 24 18 20 24 21 20 23 23 22 24 22 20 20 20 19 15 13 13 12 11 9 nan nan nan 17 15 11 9 8 6 7 8 9 9 10 11 10 8 8 8 6 7 9 11 9 8 8 8 7 6 6 6
nan 52 53 53 53 53 51 50 49 48 49 47 45 45 42 41 40 38 38 36 36 37 35 35 35 34 34 31 28 28 30 28 25 23 21 23 27 25 23 22 24 26 23 20 19 19 17 15 18 18 16 13 13 12 nan nan nan 18 17 15 11 9 8 7 8 8 9 9 10 10 10 9 9 10 12 13 14 12 12 10 9 9 9 6 6
nan nan nan nan 54 54 53 51 50 49 49 48 47 46 45 44 44 43 41 39 39 42 41 40 39 38 38 36 33 32 33 30 27 25 25 26 28 25 21 19 22 24 23 21 21 21 21 22 22 19 18 14 11 11 16 17 nan nan 19 18 15 12 10 9 9 10 12 12 12 10 9 8 10 11 12 11 13 16 17 14 12 10 10 10 11
nan nan nan nan nan nan 55 52 50 50 52 51 49 48 48 47 47 47 44 42 42 45 46 44 43 42 40 38 35 34 34 33 30 28 27 25 23 22 23 23 22 22 21 21 20 21 20 19 18 17 16 15 12 10 12 19 16 16 nan nan 18 16 14 12 11 10 11 12 13 13 14 13 13 13 11 10 13 16 17 17 17 15 14 13 13
nan nan nan nan nan nan nan nan nan 54 54 52 50 51 49 49 49 48 46 44 46 47 47 46 45 45 42 38 36 34 34 35 33 32 32 27 23 22 22 23 22 20 18 19 19 18 18 17 17 17 15 13 14 13 13 17 19 20 23 22 20 19 18 15 14 14 13 13 12 13 13 13 13 16 15 15 14 17 18 16 16 15 14 12 13
nan nan nan nan nan nan nan nan nan nan nan nan nan 53 51 52 52 50 50 49 50 50 48 47 46 45 43 40 39 37 35 35 33 33 34 27 23 23 23 23 21 20 18 17 17 18 18 19 19 19 18 16 16 15 12 15 20 24 26 24 23 21 19 18 18 18 18 18 16 10 12 14 14 15 14 16 18 21 20 17 17 15 14 12 14
nan nan nan nan nan nan nan nan nan nan nan nan nan nan nan nan nan nan nan 52 52 52 50 49 48 46 nan nan 44 42 37 35 35 33 33 31 28 25 24 22 21 22 21 20 20 19 19 20 20 20 20 18 19 19 18 18 22 25 26 26 26 25 21 20 20 20 21 21 20 17 13 13 15 15 14 17 20 24 22 19 19 17 14 12 15
nan nan nan nan nan nan nan nan nan nan nan nan nan nan nan nan nan nan nan nan nan nan nan nan nan nan nan nan nan 45 42 40 37 35 34 32 29 28 26 25 24 23 23 22 22 22 20 19 21 22 24 22 21 23 24 23 25 26 26 27 28 26 23 22 22 22 23 23 22 22 20 16 14 13 14 17 21 25 23 22 22 19 15 14 19
nan nan nan nan nan nan nan nan nan nan nan nan nan nan nan nan nan nan nan nan nan nan nan nan nan nan nan nan nan nan nan nan nan 39 35 31 29 30 28 27 26 25 26 25 25 24 22 21 21 23 24 24 26 33 42 53 40 32 25 25 27 27 25 25 25 25 24 22 23 24 24 23 21 19 18 18 20 24 24 24 23 20 19 20 24
nan nan nan nan nan nan nan nan nan nan nan nan nan nan nan nan nan nan nan nan nan nan nan nan nan nan nan nan nan nan nan nan nan nan 41 38 34 31 28 26 25 26 26 24 24 24 24 23 24 24 25 31 49 53 40 30 31 29 25 21 25 22 25 27 27 26 26 25 24 25 26 26 26 24 23 22 21 22 24 25 21 20 18 20 22
nan nan nan nan nan nan nan nan nan nan nan nan nan nan nan nan nan nan nan nan nan nan nan nan nan nan nan nan nan nan nan nan nan nan nan nan 40 38 35 31 28 26 25 25 24 23 23 24 26 27 28 38 40 32 30 20 18 23 25 27 21 20 19 29 27 27 26 25 25 26 27 23 25 27 26 25 25 24 26 25 21 21 21 20 22
nan nan nan nan nan nan nan nan nan nan nan nan nan nan nan nan nan nan nan nan nan nan nan nan nan nan nan nan nan nan nan nan nan nan nan nan nan nan 39 38 35 31 29 28 27 26 25 25 26 28 30 36 29 26 24 19 22 24 26 26 24 18 16 25 29 27 27 28 28 28 34 39 33 28 27 27 28 28 29 26 24 23 23 23 27
nan nan nan nan nan nan nan nan nan nan nan nan nan nan nan nan nan nan nan nan nan nan nan nan nan nan nan nan nan nan nan nan nan nan nan nan nan nan nan 42 41 37 35 33 31 29 26 25 26 26 27 31 28 26 25 30 33 27 25 24 22 20 17 22 30 27 26 28 33 48 43 39 40 36 31 29 29 27 26 27 27 26 26 33 31
nan nan nan nan nan nan nan nan nan nan nan nan nan nan nan nan nan nan nan nan nan nan nan nan nan nan nan nan nan nan nan nan nan nan nan nan nan nan nan 42 42 41 39 36 34 33 31 28 26 26 27 27 28 27 29 31 32 31 30 27 25 25 26 26 22 22 21 24 27 29 31 30 29 34 37 35 34 32 29 26 24 26 32 34 32
nan nan nan nan nan nan nan nan nan nan nan nan nan nan nan nan nan nan nan nan nan nan nan nan nan nan nan nan nan nan nan nan nan nan nan nan nan nan nan nan nan 42 41 39 38 37 36 37 37 35 32 30 28 28 29 31 33 33 33 33 36 34 32 31 30 29 28 28 27 29 30 29 31 31 30 29 29 30 32 33 33 33 32 31 32
nan nan nan nan nan nan nan nan nan nan nan nan nan nan nan nan nan nan nan nan nan nan nan nan nan nan nan nan nan nan nan nan nan nan nan nan nan nan nan nan nan nan 45 45 46 49 46 41 38 36 33 32 30 30 31 31 32 32 34 38 36 36 36 38 35 33 31 29 28 29 28 29 29 27 27 28 27 27 29 32 34 35 34 31 29
nan nan nan nan nan nan nan nan nan nan nan nan nan nan nan nan nan nan nan nan nan nan nan nan nan nan nan nan nan nan nan nan nan nan nan nan nan nan nan nan nan nan nan nan nan nan nan nan nan nan 36 33 31 31 37 42 40 39 38 37 37 34 35 32 34 36 34 30 29 29 29 28 27 26 25 25 25 25 26 27 27 30 32 31 30
nan nan nan nan nan nan nan nan nan nan nan nan nan nan nan nan nan nan nan nan nan nan nan nan nan nan nan nan nan nan nan nan nan nan nan nan nan nan nan nan nan nan nan nan nan nan nan nan nan nan nan nan nan nan 38 37 34 32 34 34 31 29 26 25 24 28 37 33 29 26 25 25 24 24 24 24 23 24 25 26 27 27 28 28 27
nan nan nan nan nan nan nan nan nan nan nan nan nan nan nan nan nan nan nan nan nan nan nan nan nan nan nan nan nan nan nan nan nan nan nan nan nan nan nan nan nan nan nan nan nan nan nan nan nan nan nan nan nan nan nan nan 33 31 32 37 36 32 24 17 18 29 33 30 29 25 21 21 22 21 21 21 22 23 24 25 25 24 23 21 22
Wind_Direction
nan nan nan nan nan nan nan nan nan nan 238 249 244 250 nan 238 246 246 241 243 229 227 194 178 135 124 169 151 287 274 177 142 229 121 150 87 358 25 87 86 98 106 110 83 63 84 106 98 108 100 93 87 93 90 77 85 90 83 91 108 89 83 87 67 91 94 86 84 90 80 79 91 95 98 107 109 119 118 118 107 118 101 104 109 105
nan nan nan nan nan nan nan nan nan nan 247 nan nan 249 nan 259 259 250 245 249 241 249 206 219 198 158 228 180 260 258 236 148 210 288 6 327 253 334 56 49 55 51 118 115 74 97 110 104 72 83 82 88 83 82 77 85 81 113 115 97 88 95 84 93 103 82 76 87 96 103 111 115 114 105 96 110 118 121 115 113 111 112 104 96 97
nan 302 nan nan nan nan nan nan nan nan nan nan nan 252 255 245 239 234 241 250 246 249 219 216 233 217 230 232 176 240 211 204 252 262 32 297 324 275 62 238 35 5 22 64 120 122 166 156 71 203 100 71 81 76 89 73 79 63 77 88 92 72 86 91 77 96 98 92 96 101 108 106 117 117 116 121 120 118 123 113 116 113 118 128 110
307 304 307 298 nan nan nan nan nan nan 271 nan nan 261 256 237 241 231 234 241 240 243 224 231 249 235 231 233 203 219 223 210 211 244 222 306 315 295 246 120 117 324 356 346 283 35 8 219 158 332 69 135 90 108 101 92 74 84 85 89 106 102 87 73 75 97 110 123 112 123 112 118 119 128 124 130 123 133 120 124 123 122 131 127 108
302 312 310 302 nan 295 nan 286 nan nan 281 279 279 269 247 259 249 236 234 235 225 242 227 240 236 249 233 237 226 220 226 202 223 242 252 239 300 313 316 320 291 246 344 301 309 3 289 333 16 84 349 11 52 58 87 82 70 70 74 97 113 109 107 111 96 86 122 124 119 125 133 139 135 133 135 138 147 138 121 140 nan 127 138 118 114
287 316 310 307 298 284 288 299 nan 284 284 281 280 nan 263 253 250 234 231 233 226 240 225 236 246 255 253 260 254 250 228 233 219 230 258 245 313 322 310 333 315 300 269 300 282 291 300 325 28 10 353 255 129 136 109 97 56 80 61 118 94 77 136 116 96 112 121 119 121 115 99 120 133 135 132 136 136 132 139 145 128 122 131 109 98
296 302 307 305 296 292 295 300 nan 295 293 284 280 279 267 259 251 234 231 229 229 237 220 234 244 252 259 270 265 256 241 223 219 214 225 232 212 277 284 329 307 330 329 295 38 307 320 18 335 52 163 333 348 56 61 78 68 112 59 99 138 147 129 126 143 123 159 122 104 113 127 143 137 141 137 141 140 139 144 128 117 122 116 92 86
235 280 304 305 297 300 303 301 301 303 303 299 293 282 261 257 252 236 227 225 226 239 226 230 242 245 258 265 264 266 265 231 235 206 221 211 216 238 271 284 326 301 17 285 4 342 38 11 3 256 217 152 189 154 145 101 136 132 169 172 126 140 121 130 125 131 132 131 163 150 140 142 147 139 143 143 134 140 136 135 132 126 126 144 130
240 239 260 284 294 306 304 303 307 308 311 309 307 278 265 265 254 235 233 221 227 245 232 238 237 242 253 256 257 255 255 253 232 213 217 226 223 219 221 247 262 259 123 298 349 344 300 72 360 251 214 175 130 91 91 78 68 57 336 85 93 81 94 114 132 133 145 149 152 142 141 140 125 139 146 132 137 143 137 141 148 146 143 145 148
239 245 251 237 301 300 301 303 314 308 311 310 311 299 286 272 265 247 241 226 229 243 234 236 242 242 249 242 254 249 238 250 240 220 222 225 226 232 215 225 255 259 212 286 241 238 286 40 224 329 257 121 115 205 108 58 102 57 33 50 76 114 141 120 94 130 146 140 145 137 147 139 144 149 148 140 149 144 133 140 133 129 132 139 130
239 234 239 266 296 292 296 310 310 303 291 304 307 303 297 290 282 264 248 237 236 245 236 236 236 242 248 241 248 254 247 245 237 235 222 230 199 235 231 186 178 241 243 207 290 317 232 317 360 321 1 252 159 162 120 70 18 27 14 29 81 76 108 132 135 137 123 126 125 141 116 122 133 140 142 141 146 137 142 135 140 153 147 141 139
252 238 257 243 255 277 283 296 301 277 290 288 293 289 292 281 285 276 261 250 247 249 242 237 233 241 245 246 243 245 245 249 241 235 232 226 216 219 225 225 175 175 183 244 142 332 237 152 110 268 268 244 52 84 107 142 155 110 201 142 126 151 134 135 150 161 154 148 135 127 110 119 132 120 134 138 147 150 146 140 143 144 137 143 134
264 244 251 263 257 251 276 264 266 266 254 278 278 271 285 284 287 289 274 263 256 257 250 244 235 236 243 249 243 239 239 251 245 236 228 224 217 216 224 205 214 154 191 202 189 147 245 88 181 277 274 269 155 181 233 163 225 178 157 99 114 139 141 142 135 135 144 153 137 143 132 138 137 139 142 142 150 148 139 135 149 152 147 144 150
272 280 267 256 245 246 256 256 260 261 274 274 278 266 267 277 279 286 280 267 260 262 258 250 241 237 238 247 243 240 247 251 246 237 233 224 219 215 218 221 191 180 182 190 188 159 275 258 188 290 291 297 272 93 72 45 255 198 156 140 161 140 151 152 133 141 145 119 145 134 147 146 141 133 146 138 145 131 132 153 160 156 158 158 160
266 263 267 257 235 233 244 261 269 272 277 277 262 266 259 261 267 274 271 268 264 268 261 255 246 241 239 242 242 247 253 258 259 248 243 230 227 217 215 221 220 196 199 211 203 192 226 247 324 295 293 310 328 16 343 296 267 197 171 151 169 159 148 155 142 143 149 145 164 140 159 140 148 163 138 149 150 163 172 173 171 171 164 161 172
242 253 249 242 240 232 241 242 242 250 266 260 260 253 255 252 259 261 268 269 267 268 266 259 250 245 245 238 249 254 257 263 264 260 248 240 230 226 225 197 216 233 210 221 232 177 245 265 296 302 291 301 291 292 286 277 224 241 160 136 150 152 156 152 133 124 127 126 139 183 169 158 151 139 152 147 170 179 176 165 166 172 178 172 169
248 246 249 249 241 262 259 257 252 242 241 238 226 213 222 240 244 233 229 233 266 268 272 262 254 253 248 245 250 259 273 280 289 293 288 259 234 233 236 217 207 223 245 235 218 222 222 246 259 309 283 283 289 281 270 251 240 226 167 158 155 132 143 151 143 152 149 137 166 176 180 191 158 176 173 166 196 183 168 175 166 185 190 179 172
230 232 234 257 254 248 256 261 265 262 253 252 249 242 239 227 236 248 240 243 255 274 273 269 260 254 249 245 243 256 273 290 292 300 291 265 249 234 236 244 237 231 236 264 243 253 241 261 262 250 280 275 283 286 270 265 253 207 196 163 171 147 170 159 142 149 154 145 161 188 195 212 174 178 185 166 227 172 175 152 155 209 201 185 178
246 251 238 225 237 244 247 245 248 260 267 256 254 251 253 246 257 267 270 250 278 265 257 253 256 248 244 241 243 246 260 279 274 274 269 262 267 252 233 244 259 246 246 242 266 260 248 259 256 262 264 280 271 267 275 258 260 241 195 157 145 130 148 123 138 147 148 155 165 178 195 206 188 189 194 190 230 216 220 178 175 202 204 190 190
255 265 270 233 225 244 242 249 267 278 273 251 246 245 244 244 249 257 258 259 256 247 251 236 231 236 235 236 233 224 238 258 264 268 277 265 251 253 240 245 249 256 255 257 254 264 259 269 285 282 285 289 285 276 278 265 243 216 198 145 162 137 151 147 134 145 137 165 156 175 198 191 195 209 202 199 205 216 205 204 216 226 233 213 208
256 256 257 258 256 246 257 261 263 281 272 267 284 282 262 254 250 248 252 250 257 250 237 226 215 227 227 221 212 211 238 243 282 281 282 274 265 249 251 225 236 241 253 269 265 256 269 269 275 277 288 277 272 271 260 257 250 227 195 179 185 166 155 161 156 157 145 168 179 187 185 197 196 204 214 206 202 222 245 247 230 232 230 236 238
257 248 244 247 252 255 240 234 248 273 270 270 280 290 281 264 251 256 259 249 251 240 227 233 244 238 229 230 236 210 192 237 267 289 294 290 289 270 254 243 238 236 240 268 272 278 258 265 265 272 264 265 275 264 279 254 253 243 213 181 164 215 157 162 178 177 160 161 192 210 193 190 210 201 204 203 215 201 228 255 272 258 261 255 271
247 252 248 245 244 249 258 253 251 259 273 266 271 284 270 247 237 239 254 258 252 252 245 239 233 236 238 230 220 234 216 191 263 274 301 309 299 290 266 261 250 246 239 239 264 278 267 255 249 249 259 253 266 279 261 251 254 253 239 181 182 247 202 182 173 178 172 184 179 190 201 208 177 200 214 199 190 199 205 207 221 239 240 237 253
240 244 248 245 244 247 247 247 251 253 258 270 276 274 273 268 251 238 239 243 240 231 231 233 232 230 229 230 221 220 228 210 236 259 284 297 291 292 279 273 269 257 261 246 244 264 265 264 255 241 248 244 250 269 268 257 245 251 245 220 181 203 246 224 188 185 179 179 184 197 192 193 199 193 215 214 209 213 211 211 216 233 250 242 234
247 250 251 249 249 248 246 241 240 250 253 257 268 264 260 266 274 248 236 237 232 226 216 211 218 221 224 227 234 226 213 232 227 229 266 277 282 286 278 281 275 262 260 263 252 244 253 266 268 251 243 247 239 247 262 268 253 241 236 229 215 196 197 214 213 205 192 200 203 198 205 204 201 203 207 213 217 214 213 203 210 225 237 243 246
250 250 250 249 250 251 252 251 244 247 252 256 258 259 255 250 259 264 253 243 232 226 223 212 211 210 206 213 214 237 238 229 249 242 230 259 268 269 276 275 274 263 248 261 267 256 245 254 257 257 251 247 243 241 252 259 261 255 244 226 225 223 208 201 202 202 203 201 196 205 199 201 210 222 218 223 224 218 228 232 228 221 221 229 242
249 249 248 249 250 250 252 255 255 248 251 254 256 258 255 247 241 243 258 246 238 223 216 213 216 219 209 207 216 207 219 234 250 252 245 243 256 267 266 272 268 260 262 253 267 266 257 248 250 253 257 254 251 248 248 260 253 239 245 247 229 233 228 219 212 201 194 202 203 201 211 212 207 210 211 219 223 230 229 223 223 231 237 239 233
246 247 249 249 248 249 251 253 255 257 248 248 250 252 253 250 245 238 234 229 218 219 219 217 212 224 222 200 210 208 211 209 222 238 238 240 236 231 240 248 256 262 259 257 250 268 268 259 251 252 248 249 257 256 251 254 261 249 233 238 241 232 234 234 225 228 206 195 215 215 195 227 237 220 221 217 215 217 237 237 242 242 240 240 234
245 245 245 246 246 246 247 248 252 254 256 251 244 246 252 252 248 246 246 232 213 210 212 216 220 226 220 215 214 223 223 223 210 215 220 227 236 229 224 226 243 254 257 252 248 247 267 271 263 256 250 249 257 265 258 259 257 262 247 228 238 238 229 229 238 233 236 220 206 206 218 204 248 322 342 309 270 248 226 232 238 240 241 247 249
242 243 244 245 246 245 245 245 246 249 249 249 248 244 245 249 248 247 248 248 240 226 215 223 223 224 229 224 218 219 220 220 223 218 214 211 219 228 233 227 212 238 251 252 246 240 241 267 270 265 258 255 251 251 267 294 280 263 261 251 239 238 234 231 232 236 233 246 237 207 192 150 148 345 338 336 350 343 279 256 239 247 254 254 258
239 242 243 244 244 243 244 244 244 245 246 247 245 243 243 241 244 248 247 244 242 250 243 232 229 226 231 229 228 225 226 229 236 244 239 227 222 222 228 235 232 219 233 249 261 251 240 244 269 271 265 260 253 251 283 295 299 302 274 263 246 236 240 236 232 234 235 230 231 237 229 196 190 210 267 328 330 336 329 320 302 283 277 269 267
237 237 239 242 243 242 242 242 242 243 245 246 247 246 245 244 243 241 243 243 243 243 246 239 233 229 233 237 237 234 232 231 235 230 226 227 227 230 234 238 228 219 229 224 222 230 242 247 247 263 275 264 255 263 286 295 298 302 295 270 261 247 234 237 236 233 235 237 232 222 218 210 223 233 243 269 296 319 321 325 338 343 349 327 303
236 236 237 238 240 241 240 240 241 243 244 243 246 250 250 251 251 250 248 245 245 246 245 243 239 236 235 236 240 239 237 242 253 251 241 242 240 238 242 246 257 251 234 231 233 230 223 220 228 242 250 264 269 283 nan nan nan 299 302 293 262 255 253 234 235 242 240 238 242 243 230 214 202 214 252 260 272 284 310 335 335 342 346 343 343
nan 236 237 237 239 239 239 238 239 240 241 242 241 245 248 250 253 254 256 255 252 252 249 247 245 244 244 240 236 241 241 246 249 252 241 234 236 235 231 232 238 243 242 239 233 233 237 231 227 222 227 237 244 261 nan nan nan 299 299 289 266 264 252 242 240 241 246 249 247 244 243 235 231 219 221 233 248 263 264 266 267 267 276 297 323
nan nan nan nan 237 238 239 239 239 239 240 239 239 239 243 246 248 247 247 251 255 257 253 250 248 246 247 246 243 243 248 250 250 246 242 236 240 240 233 234 241 243 242 237 232 228 229 224 221 224 221 218 235 221 258 288 nan nan 298 287 267 264 259 255 245 239 240 241 248 257 257 254 246 244 244 236 234 245 258 265 267 270 274 276 283
nan nan nan nan nan nan 236 237 240 242 242 240 239 239 241 243 245 247 246 245 251 255 256 254 252 251 249 249 248 247 246 252 254 251 250 251 252 245 229 226 235 242 246 247 242 239 236 233 231 229 227 227 229 240 246 275 285 285 nan nan 269 265 264 262 261 256 247 242 241 242 244 247 251 253 258 264 254 248 247 253 262 267 269 275 284
nan nan nan nan nan nan nan nan nan 242 242 240 241 242 241 243 244 245 250 249 248 250 252 255 257 257 255 253 251 246 247 249 252 254 250 246 252 254 244 232 230 239 245 250 252 254 251 244 242 246 241 229 231 243 252 271 279 286 270 261 263 258 256 256 255 258 255 251 247 244 243 239 242 245 253 265 267 263 254 255 256 257 260 262 271
nan nan nan nan nan nan nan nan nan nan nan nan nan 244 242 244 243 242 245 249 250 250 250 252 255 257 260 258 256 252 248 248 249 250 258 257 253 255 252 244 234 230 233 240 247 250 250 247 241 238 231 221 222 231 244 262 279 281 279 271 267 262 254 250 249 248 249 248 249 251 242 240 240 244 249 260 267 268 262 264 264 264 264 269 271
nan nan nan nan nan nan nan nan nan nan nan nan nan nan nan nan nan nan nan 245 249 251 250 251 251 252 nan nan 257 257 252 248 246 245 247 251 253 248 245 246 242 234 228 229 231 231 232 236 234 232 232 225 219 220 227 245 266 274 273 261 263 263 259 257 252 248 248 247 247 250 255 253 251 249 255 261 270 272 268 270 271 272 276 279 277
nan nan nan nan nan nan nan nan nan nan nan nan nan nan nan nan nan nan nan nan nan nan nan nan nan nan nan nan nan 259 260 256 254 249 246 246 246 245 242 242 242 239 233 230 226 224 222 227 228 227 227 227 225 226 230 238 255 263 273 263 261 260 261 261 256 251 249 252 252 253 258 269 272 269 267 269 273 281 276 273 274 280 283 285 274
nan nan nan nan nan nan nan nan nan nan nan nan nan nan nan nan nan nan nan nan nan nan nan nan nan nan nan nan nan nan nan nan nan 256 255 253 250 247 245 249 247 243 239 234 228 226 224 223 222 223 225 227 228 224 223 220 223 235 248 260 245 252 256 256 256 254 253 250 250 254 256 269 284 285 283 283 283 286 285 278 281 284 287 277 271
nan nan nan nan nan nan nan nan nan nan nan nan nan nan nan nan nan nan nan nan nan nan nan nan nan nan nan nan nan nan nan nan nan nan 256 256 257 258 256 251 247 249 246 240 235 233 230 228 228 224 224 228 237 237 239 233 243 256 260 255 256 249 246 253 253 254 253 251 252 253 255 262 279 287 289 290 295 293 296 284 288 296 292 283 280
nan nan nan nan nan nan nan nan nan nan nan nan nan nan nan nan nan nan nan nan nan nan nan nan nan nan nan nan nan nan nan nan nan nan nan nan 255 255 254 252 252 253 250 245 241 237 234 236 236 234 232 243 249 251 266 270 279 283 284 285 287 272 264 260 254 253 254 255 255 253 254 262 275 283 289 294 295 301 292 288 301 296 295 297 289
nan nan nan nan nan nan nan nan nan nan nan nan nan nan nan nan nan nan nan nan nan nan nan nan nan nan nan nan nan nan nan nan nan nan nan nan nan nan 254 253 253 254 257 256 249 243 240 238 236 239 243 257 258 257 261 266 253 252 254 265 273 276 262 261 262 254 253 253 252 253 253 248 250 271 284 291 295 297 292 301 302 304 302 299 288
nan nan nan nan nan nan nan nan nan nan nan nan nan nan nan nan nan nan nan nan nan nan nan nan nan nan nan nan nan nan nan nan nan nan nan nan nan nan nan 254 254 253 256 259 256 250 244 240 239 241 245 257 256 255 253 252 254 250 251 253 254 257 264 249 246 254 251 251 244 244 241 245 253 260 267 267 269 280 294 300 304 307 304 287 289
nan nan nan nan nan nan nan nan nan nan nan nan nan nan nan nan nan nan nan nan nan nan nan nan nan nan nan nan nan nan nan nan nan nan nan nan nan nan nan 255 256 256 258 258 256 254 252 249 245 245 245 249 252 254 253 253 255 256 253 253 256 257 254 259 265 256 251 233 228 232 234 239 247 256 260 264 270 275 284 292 296 293 282 283 288
nan nan nan nan nan nan nan nan nan nan nan nan nan nan nan nan nan nan nan nan nan nan nan nan nan nan nan nan nan nan nan nan nan nan nan nan nan nan nan nan nan 257 255 256 256 255 253 250 247 246 245 246 248 250 252 254 257 256 255 257 256 255 257 253 247 247 242 241 233 238 245 242 243 249 257 260 265 273 277 277 277 277 280 282 285
nan nan nan nan nan nan nan nan nan nan nan nan nan nan nan nan nan nan nan nan nan nan nan nan nan nan nan nan nan nan nan nan nan nan nan nan nan nan nan nan nan nan 255 253 251 249 250 250 248 248 250 253 252 251 252 254 258 261 258 258 258 260 260 259 255 254 253 247 247 245 244 246 247 248 255 258 260 265 271 274 275 278 278 281 285
nan nan nan nan nan nan nan nan nan nan nan nan nan nan nan nan nan nan nan nan nan nan nan nan nan nan nan nan nan nan nan nan nan nan nan nan nan nan nan nan nan nan nan nan nan nan nan nan nan nan 248 250 252 250 256 264 265 262 257 253 248 247 250 251 253 252 251 252 251 251 253 253 249 249 251 250 250 254 263 270 274 275 277 282 286
nan nan nan nan nan nan nan nan nan nan nan nan nan nan nan nan nan nan nan nan nan nan nan nan nan nan nan nan nan nan nan nan nan nan nan nan nan nan nan nan nan nan nan nan nan nan nan nan nan nan nan nan nan nan 253 250 251 254 259 264 263 257 256 261 260 253 257 257 259 255 257 256 254 257 259 258 254 256 258 261 264 271 275 278 284
nan nan nan nan nan nan nan nan nan nan nan nan nan nan nan nan nan nan nan nan nan nan nan nan nan nan nan nan nan nan nan nan nan nan nan nan nan nan nan nan nan nan nan nan nan nan nan nan nan nan nan nan nan nan nan nan 257 256 257 266 271 272 272 279 276 260 258 264 265 266 265 265 263 262 261 257 253 252 253 254 256 262 272 278 278